N4XWC Weather Reports


time (UTC)temp
C
wind
direction
speed
KPH
gust
KPH
rain 1hr
cm
rain 24hr
cm
rain mn
cm
humidity
%
barometer
mb
20260904171223 33 130 4.8 6.4 0.00 0.00 0.00 63 1015.8
20260904171156 33 123 4.8 4.8 0.00 0.00 0.00 63 1015.8
20260904170722 33 288 1.6 4.8 0.00 0.00 0.00 64 1015.8
20260904170223 33 96 3.2 3.2 0.00 0.00 0.00 62 1015.8
20260904170156 33 0 0.0 0.0 0.00 0.00 0.00 63 1015.8
20260904165722 32 0 0.0 0.0 0.00 0.00 0.00 62 1016.0
20260904165223 32 41 0.0 1.6 0.00 0.00 0.00 61 1016.0
20260904165155 32 92 1.6 1.6 0.00 0.00 0.00 62 1016.0
20260904164723 32 126 0.0 3.2 0.00 0.00 0.00 59 1016.0
20260904164222 32 100 3.2 4.8 0.00 0.00 0.00 60 1016.1
20260904164157 32 69 4.8 4.8 0.00 0.00 0.00 61 1016.1
20260904163722 32 11 3.2 3.2 0.00 0.00 0.00 64 1016.1
20260904163223 32 20 1.6 3.2 0.00 0.00 0.00 66 1016.1
20260904163156 32 20 1.6 3.2 0.00 0.00 0.00 66 1016.1
20260904162722 32 282 0.0 1.6 0.00 0.00 0.00 65 1016.1
20260904162223 32 140 1.6 1.6 0.00 0.00 0.00 68 1016.1
20260904162156 32 143 0.0 0.0 0.00 0.00 0.00 68 1016.1
20260904161722 32 144 0.0 1.6 0.00 0.00 0.00 69 1016.1
20260904161223 32 227 0.0 0.0 0.00 0.00 0.00 69 1016.2
20260904161155 32 227 0.0 3.2 0.00 0.00 0.00 69 1016.2
20260904160723 32 226 0.0 1.6 0.00 0.00 0.00 69 1016.2
20260904160224 32 13 0.0 0.0 0.00 0.00 0.00 68 1016.2
20260904160157 32 13 0.0 1.6 0.00 0.00 0.00 68 1016.2
20260904155723 32 357 0.0 1.6 0.00 0.00 0.00 68 1016.3
20260904155223 31 178 1.6 1.6 0.00 0.00 0.00 69 1016.3
20260904155156 31 193 3.2 4.8 0.00 0.00 0.00 69 1016.3
20260904154724 31 114 1.6 3.2 0.00 0.00 0.00 69 1016.3
20260904154223 31 215 1.6 3.2 0.00 0.00 0.00 69 1016.3
20260904154155 31 191 0.0 1.6 0.00 0.00 0.00 69 1016.3
20260904153724 32 216 0.0 3.2 0.00 0.00 0.00 68 1016.3
20260904153223 32 162 1.6 1.6 0.00 0.00 0.00 67 1016.3
20260904153157 32 155 1.6 3.2 0.00 0.00 0.00 67 1016.3
20260904152723 32 198 0.0 1.6 0.00 0.00 0.00 68 1016.1
20260904152230 31 104 1.6 3.2 0.00 0.00 0.00 68 1016.1
20260904152224 31 104 1.6 1.6 0.00 0.00 0.00 67 1016.1
20260904152156 31 104 1.6 3.2 0.00 0.00 0.00 68 1016.1
20260904151723 31 137 3.2 3.2 0.00 0.00 0.00 69 1016.1
20260904151222 31 102 1.6 1.6 0.00 0.00 0.00 68 1016.0
20260904151156 31 141 0.0 0.0 0.00 0.00 0.00 68 1016.0
20260904150723 31 151 1.6 1.6 0.00 0.00 0.00 70 1016.0
20260904150224 31 134 1.6 3.2 0.00 0.00 0.00 70 1016.0
20260904150155 30 151 3.2 3.2 0.00 0.00 0.00 71 1016.0
20260904145722 30 196 0.0 0.0 0.00 0.00 0.00 72 1015.9
20260904145223 30 112 1.6 1.6 0.00 0.00 0.00 74 1015.9
20260904145159 30 150 1.6 4.8 0.00 0.00 0.00 74 1015.9
20260904144724 30 251 0.0 1.6 0.00 0.00 0.00 74 1015.9
20260904144223 29 195 0.0 1.6 0.00 0.00 0.00 73 1015.9
20260904144156 29 184 0.0 1.6 0.00 0.00 0.00 73 1015.9
20260904143724 29 138 1.6 1.6 0.00 0.00 0.00 74 1015.9
20260904143245 28 154 0.0 0.0 0.00 0.00 0.00 75 1015.9
20260904143223 28 154 0.0 0.0 0.00 0.00 0.00 75 1015.9
20260904143156 28 154 0.0 0.0 0.00 0.00 0.00 75 1015.9
20260904142723 28 155 0.0 3.2 0.00 0.00 0.00 75 1015.9
20260904142224 28 230 1.6 1.6 0.00 0.00 0.00 75 1015.9
20260904142156 28 230 1.6 3.2 0.00 0.00 0.00 75 1015.9
20260904141722 28 178 0.0 0.0 0.00 0.00 0.00 74 1015.9
20260904141222 28 140 0.0 0.0 0.00 0.00 0.00 74 1015.8
20260904141158 28 140 0.0 1.6 0.00 0.00 0.00 74 1015.8
20260904140723 28 172 0.0 1.6 0.00 0.00 0.00 74 1015.8
20260904140223 28 172 0.0 0.0 0.00 0.00 0.00 77 1015.8
20260904140156 28 172 0.0 6.4 0.00 0.00 0.00 76 1015.8
20260904135722 28 161 0.0 0.0 0.00 0.00 0.00 76 1015.8
20260904135222 28 130 3.2 3.2 0.00 0.00 0.00 81 1015.8
20260904135155 28 165 0.0 1.6 0.00 0.00 0.00 81 1015.8
20260904134723 28 160 0.0 0.0 0.00 0.00 0.00 80 1015.8
20260904134222 28 193 0.0 1.6 0.00 0.00 0.00 81 1015.8
20260904134159 28 193 1.6 1.6 0.00 0.00 0.00 81 1015.8
20260904133723 27 158 0.0 0.0 0.00 0.00 0.00 81 1015.8
20260904133222 27 157 1.6 1.6 0.00 0.00 0.00 81 1015.8
20260904133157 27 167 1.6 1.6 0.00 0.00 0.00 81 1015.8
20260904132723 27 151 0.0 0.0 0.00 0.00 0.00 81 1015.9
20260904132223 27 151 0.0 1.6 0.00 0.00 0.00 82 1015.9
20260904132158 27 161 0.0 0.0 0.00 0.00 0.00 82 1015.9
20260904131722 27 164 1.6 3.2 0.00 0.00 0.00 84 1015.9
20260904131223 26 109 0.0 0.0 0.00 0.00 0.00 85 1015.8
20260904131156 26 109 0.0 0.0 0.00 0.00 0.00 85 1015.8
20260904130722 26 109 0.0 0.0 0.00 0.00 0.00 84 1015.8
20260904130223 26 126 3.2 3.2 0.00 0.00 0.00 86 1015.8
20260904130157 26 126 1.6 3.2 0.00 0.00 0.00 86 1015.8
20260904125723 26 150 1.6 1.6 0.00 0.00 0.00 87 1015.8
20260904125222 25 133 3.2 3.2 0.00 0.00 0.00 88 1015.8
20260904125157 25 164 1.6 3.2 0.00 0.00 0.00 88 1015.8
20260904124723 25 158 0.0 3.2 0.00 0.00 0.00 88 1015.8
20260904124222 25 138 1.6 3.2 0.00 0.00 0.00 88 1015.6
20260904124156 25 134 3.2 3.2 0.00 0.00 0.00 88 1015.6
20260904123723 25 141 1.6 3.2 0.00 0.00 0.00 88 1015.6
20260904123224 25 124 1.6 3.2 0.00 0.00 0.00 88 1015.6
20260904123156 25 116 3.2 3.2 0.00 0.00 0.00 88 1015.6
20260904122722 25 106 0.0 3.2 0.00 0.00 0.00 89 1015.4
20260904122223 25 110 0.0 0.0 0.00 0.00 0.00 90 1015.4
20260904122156 25 104 0.0 0.0 0.00 0.00 0.00 90 1015.4
20260904121722 25 145 0.0 0.0 0.00 0.00 0.00 90 1015.4
20260904121223 25 96 0.0 0.0 0.00 0.00 0.00 90 1015.2
20260904121157 24 117 0.0 0.0 0.00 0.00 0.00 90 1015.2
20260904120724 24 102 0.0 0.0 0.00 0.00 0.00 91 1015.2
20260904120222 24 79 1.6 1.6 0.00 0.00 0.00 91 1015.2
20260904120158 24 89 1.6 3.2 0.00 0.00 0.00 91 1015.2
20260904115723 24 72 0.0 3.2 0.00 0.00 0.00 91 1015.0
20260904115223 24 117 1.6 3.2 0.00 0.00 0.00 91 1015.0
20260904115157 24 100 3.2 3.2 0.00 0.00 0.00 91 1015.0
20260904114722 24 113 3.2 3.2 0.00 0.00 0.00 91 1015.0
20260904114223 24 107 0.0 0.0 0.00 0.00 0.00 91 1014.8
20260904114155 24 130 0.0 0.0 0.00 0.00 0.00 91 1014.8
20260904113723 24 134 0.0 0.0 0.00 0.00 0.00 91 1014.8
20260904113224 24 100 0.0 0.0 0.00 0.00 0.00 91 1014.8
20260904113156 24 109 0.0 0.0 0.00 0.00 0.00 91 1014.8
20260904112722 24 127 0.0 3.2 0.00 0.00 0.00 91 1014.8
20260904112223 24 106 0.0 0.0 0.00 0.00 0.00 90 1014.8
20260904112156 24 107 0.0 0.0 0.00 0.00 0.00 90 1014.8
20260904111724 24 107 0.0 0.0 0.00 0.00 0.00 91 1014.8
20260904111227 24 93 3.2 3.2 0.00 0.00 0.00 91 1014.6
20260904111222 24 100 1.6 3.2 0.00 0.00 0.00 91 1014.6
20260904111155 24 93 3.2 3.2 0.00 0.00 0.00 91 1014.6
20260904110723 24 100 0.0 1.6 0.00 0.00 0.00 91 1014.6
20260904110224 24 104 3.2 3.2 0.00 0.00 0.00 91 1014.6
20260904110157 24 104 1.6 3.2 0.00 0.00 0.00 91 1014.6
20260904105722 24 121 0.0 3.2 0.00 0.00 0.00 91 1014.6
20260904105223 24 127 1.6 3.2 0.00 0.00 0.00 91 1014.6
20260904105157 24 134 0.0 1.6 0.00 0.00 0.00 91 1014.6
20260904104724 24 138 3.2 3.2 0.00 0.00 0.00 91 1014.6
20260904104222 24 145 0.0 1.6 0.00 0.00 0.00 91 1014.4
20260904104155 24 145 0.0 0.0 0.00 0.00 0.00 91 1014.4
20260904103723 24 145 0.0 0.0 0.00 0.00 0.00 91 1014.4
20260904103224 24 145 0.0 0.0 0.00 0.00 0.00 91 1014.4
20260904103156 24 145 0.0 0.0 0.00 0.00 0.00 91 1014.4
20260904102723 24 145 0.0 0.0 0.00 0.00 0.00 91 1014.4
20260904102224 24 145 0.0 0.0 0.00 0.00 0.00 91 1014.4
20260904102157 24 145 0.0 0.0 0.00 0.00 0.00 91 1014.4
20260904101723 24 145 0.0 0.0 0.00 0.00 0.00 91 1014.4
20260904101223 24 145 1.6 1.6 0.00 0.00 0.00 91 1014.0
20260904101156 24 145 0.0 1.6 0.00 0.00 0.00 91 1014.0
20260904100722 24 145 0.0 1.6 0.00 0.00 0.00 91 1014.0
20260904100223 24 145 0.0 0.0 0.00 0.00 0.00 91 1014.0
20260904100156 24 145 0.0 0.0 0.00 0.00 0.00 91 1014.0
20260904095722 24 145 0.0 1.6 0.00 0.00 0.00 90 1014.0
20260904095229 24 145 0.0 0.0 0.00 0.00 0.00 90 1014.0
20260904095223 24 145 0.0 0.0 0.00 0.00 0.00 90 1014.0
20260904095155 24 145 0.0 0.0 0.00 0.00 0.00 90 1014.0
20260904094723 24 145 1.6 1.6 0.00 0.00 0.00 90 1014.0
20260904094509 24 147 0.0 0.0 0.00 0.00 0.00 90 1014.0
20260904094232 24 147 0.0 0.0 0.00 0.00 0.00 90 1014.0
20260904094223 24 145 0.0 0.0 0.00 0.00 0.00 90 1014.0
20260904094156 24 147 0.0 0.0 0.00 0.00 0.00 90 1014.0
20260904093724 25 147 0.0 0.0 0.00 0.00 0.00 90 1014.0
20260904093222 25 147 0.0 0.0 0.00 0.00 0.00 89 1014.0
20260904093155 25 147 0.0 0.0 0.00 0.00 0.00 89 1014.0
20260904092723 25 143 0.0 0.0 0.00 0.00 0.00 89 1014.0
20260904092224 25 141 0.0 1.6 0.00 0.00 0.00 88 1014.0
20260904092156 25 141 1.6 1.6 0.00 0.00 0.00 88 1014.0
20260904091722 25 141 3.2 3.2 0.00 0.00 0.00 88 1014.0
20260904091223 25 152 1.6 3.2 0.00 0.00 0.00 88 1013.8
20260904091156 25 141 1.6 3.2 0.00 0.00 0.00 88 1013.8
20260904090722 25 144 4.8 4.8 0.00 0.00 0.00 87 1013.8
20260904090223 25 145 0.0 3.2 0.00 0.00 0.00 87 1013.8
20260904090156 25 161 0.0 1.6 0.00 0.00 0.00 87 1013.8
20260904085722 25 145 0.0 1.6 0.00 0.00 0.00 87 1013.8
20260904085222 25 174 1.6 3.2 0.00 0.00 0.00 86 1013.8
20260904085156 25 157 1.6 4.8 0.00 0.00 0.00 86 1013.8
20260904084723 25 127 1.6 4.8 0.00 0.00 0.00 86 1013.8
20260904084222 25 126 3.2 4.8 0.00 0.00 0.00 86 1013.9
20260904084157 25 119 1.6 3.2 0.00 0.00 0.00 86 1013.9
20260904083722 25 117 1.6 3.2 0.00 0.00 0.00 86 1013.9
20260904083222 25 113 0.0 3.2 0.00 0.00 0.00 85 1013.9
20260904083157 25 88 0.0 3.2 0.00 0.00 0.00 85 1013.9
20260904082723 25 117 1.6 3.2 0.00 0.00 0.00 85 1013.9
20260904082223 25 126 3.2 3.2 0.00 0.00 0.00 85 1013.9
20260904082156 25 75 3.2 3.2 0.00 0.00 0.00 85 1013.9
20260904081722 25 119 1.6 3.2 0.00 0.00 0.00 85 1013.9
20260904081223 25 120 3.2 3.2 0.00 0.00 0.00 85 1013.9
20260904081156 25 124 1.6 3.2 0.00 0.00 0.00 85 1013.9
20260904080723 25 134 4.8 4.8 0.00 0.00 0.00 84 1013.9
20260904080222 25 137 3.2 3.2 0.00 0.00 0.00 84 1013.9
20260904080200 25 127 3.2 4.8 0.00 0.00 0.00 84 1013.9
20260904075722 25 90 0.0 0.0 0.00 0.00 0.00 84 1013.9
20260904075223 25 102 0.0 0.0 0.00 0.00 0.00 83 1013.9
20260904075156 25 86 0.0 1.6 0.00 0.00 0.00 83 1013.9
20260904074722 25 127 3.2 3.2 0.00 0.00 0.00 83 1013.9
20260904074227 25 104 1.6 4.8 0.00 0.00 0.00 82 1013.9
20260904074223 25 114 4.8 4.8 0.00 0.00 0.00 82 1013.9
20260904074156 25 104 1.6 4.8 0.00 0.00 0.00 82 1013.9
20260904073723 25 127 0.0 3.2 0.00 0.00 0.00 82 1013.9
20260904073222 25 120 1.6 4.8 0.00 0.00 0.00 81 1013.9
20260904073157 25 107 3.2 4.8 0.00 0.00 0.00 81 1013.9
20260904072723 25 89 3.2 4.8 0.00 0.00 0.00 81 1013.9
20260904072223 25 114 1.6 3.2 0.00 0.00 0.00 82 1013.9
20260904072158 25 120 1.6 3.2 0.00 0.00 0.00 82 1013.9
20260904071723 25 109 3.2 4.8 0.00 0.00 0.00 82 1013.9
20260904071224 26 82 0.0 1.6 0.00 0.00 0.00 83 1013.9
20260904071157 26 112 1.6 3.2 0.00 0.00 0.00 83 1013.9
20260904070722 26 112 1.6 3.2 0.00 0.00 0.00 83 1013.9
20260904070223 26 96 1.6 1.6 0.00 0.00 0.00 82 1013.9
20260904070156 26 90 1.6 3.2 0.00 0.00 0.00 82 1013.9
20260904065724 26 92 4.8 4.8 0.00 0.00 0.00 83 1013.9
20260904065222 26 58 4.8 4.8 0.00 0.00 0.00 83 1013.9
20260904065158 26 72 3.2 4.8 0.00 0.00 0.00 82 1013.9
20260904064723 26 76 3.2 3.2 0.00 0.00 0.00 82 1013.9
20260904064223 26 85 1.6 3.2 0.00 0.00 0.00 82 1013.9
20260904064157 26 86 1.6 1.6 0.00 0.00 0.00 82 1013.9
20260904063723 26 83 1.6 3.2 0.00 0.00 0.00 82 1013.9
20260904063224 26 88 1.6 1.6 0.00 0.00 0.00 82 1013.9
20260904063159 26 88 1.6 3.2 0.00 0.00 0.00 82 1013.9
20260904062723 26 96 1.6 3.2 0.00 0.00 0.00 82 1014.0
20260904062223 26 71 0.0 1.6 0.00 0.00 0.00 81 1014.0
20260904062156 26 71 1.6 1.6 0.00 0.00 0.00 81 1014.0
20260904061723 26 71 0.0 1.6 0.00 0.00 0.00 80 1014.0
20260904061224 26 71 0.0 1.6 0.00 0.00 0.00 80 1013.9
20260904061156 26 72 1.6 1.6 0.00 0.00 0.00 80 1013.9
20260904060722 26 80 3.2 3.2 0.00 0.00 0.00 80 1013.9
20260904060223 26 66 1.6 3.2 0.00 0.00 0.00 80 1013.9
20260904060156 26 56 1.6 1.6 0.00 0.00 0.00 80 1013.9
20260904055724 26 82 1.6 4.8 0.00 0.00 0.00 80 1014.1
20260904055222 26 93 1.6 3.2 0.00 0.00 0.00 80 1014.1
20260904055157 26 103 1.6 3.2 0.00 0.00 0.00 80 1014.1
20260904054724 26 100 1.6 1.6 0.00 0.00 0.00 80 1014.1
20260904054224 26 88 3.2 3.2 0.00 0.00 0.00 80 1014.2
20260904054155 26 97 0.0 3.2 0.00 0.00 0.00 80 1014.2
20260904053722 26 92 1.6 3.2 0.00 0.00 0.00 80 1014.2
20260904053223 26 100 1.6 3.2 0.00 0.00 0.00 80 1014.2
20260904053157 26 99 1.6 1.6 0.00 0.00 0.00 80 1014.2
20260904052723 26 85 1.6 1.6 0.00 0.00 0.00 79 1014.2
20260904052222 26 83 1.6 3.2 0.00 0.00 0.00 80 1014.2
20260904052156 26 90 3.2 3.2 0.00 0.00 0.00 80 1014.2
20260904051723 26 71 1.6 3.2 0.00 0.00 0.00 80 1014.2
20260904051223 26 69 1.6 4.8 0.00 0.00 0.00 80 1014.1
20260904051155 26 78 4.8 4.8 0.00 0.00 0.00 80 1014.1
20260904050722 26 85 1.6 1.6 0.00 0.00 0.00 80 1014.1
20260904050223 26 106 0.0 1.6 0.00 0.00 0.00 80 1014.1
20260904050157 26 106 0.0 3.2 0.00 0.00 0.00 80 1014.1
20260904045723 26 116 1.6 1.6 0.00 0.00 0.00 80 1014.2
20260904045224 26 117 0.0 3.2 0.00 0.00 0.00 80 1014.2
20260904045157 26 109 0.0 3.2 0.00 0.00 0.00 80 1014.2
20260904044722 26 103 0.0 0.0 0.00 0.00 0.00 80 1014.2
20260904044223 26 99 0.0 0.0 0.00 0.00 0.00 80 1014.1
20260904044156 26 99 0.0 0.0 0.00 0.00 0.00 80 1014.1
20260904043723 26 99 1.6 3.2 0.00 0.00 0.00 79 1014.1
20260904043222 26 93 1.6 1.6 0.00 0.00 0.00 79 1014.1
20260904043156 26 93 0.0 1.6 0.00 0.00 0.00 79 1014.1
20260904042723 26 90 1.6 3.2 0.00 0.00 0.00 79 1014.2
20260904042224 26 104 0.0 0.0 0.00 0.00 0.00 79 1014.2
20260904042159 26 89 0.0 0.0 0.00 0.00 0.00 78 1014.2
20260904041722 26 79 0.0 0.0 0.00 0.00 0.00 78 1014.2
20260904041223 26 69 3.2 3.2 0.00 0.00 0.00 79 1014.4
20260904041156 26 61 1.6 3.2 0.00 0.00 0.00 79 1014.4
20260904040724 26 72 3.2 3.2 0.00 0.00 0.00 79 1014.4
20260904040222 26 62 1.6 3.2 0.00 0.00 0.00 79 1014.4
20260904040157 26 65 1.6 3.2 0.00 0.00 0.00 79 1014.4
20260904035723 26 55 0.0 3.2 0.00 0.00 0.00 79 1014.6
20260904035223 25 69 1.6 3.2 0.00 0.00 0.00 80 1014.6
20260904035156 25 64 0.0 3.2 0.00 0.00 0.00 80 1014.6
20260904034722 25 76 3.2 3.2 0.00 0.00 0.00 80 1014.6
20260904034223 25 93 1.6 4.8 0.00 0.00 0.00 81 1014.6
20260904034156 25 59 4.8 4.8 0.00 0.00 0.00 81 1014.6
20260904033723 25 56 3.2 4.8 0.00 0.00 0.00 81 1014.6
20260904033222 25 90 3.2 4.8 0.00 0.00 0.00 82 1014.6
20260904033157 25 100 1.6 3.2 0.00 0.00 0.00 82 1014.6
20260904032723 25 65 4.8 4.8 0.00 0.00 0.00 83 1014.8
20260904032223 25 71 4.8 4.8 0.00 0.00 0.00 84 1014.8
20260904032158 25 64 1.6 4.8 0.00 0.00 0.00 84 1014.8
20260904031722 25 52 1.6 4.8 0.00 0.00 0.00 85 1014.8
20260904031223 25 83 0.0 0.0 0.00 0.00 0.00 84 1015.0
20260904031156 25 83 0.0 0.0 0.00 0.00 0.00 84 1015.0
20260904030723 25 119 0.0 0.0 0.00 0.00 0.00 84 1015.0
20260904030222 25 119 1.6 1.6 0.00 0.00 0.00 84 1015.0
20260904030157 25 119 0.0 0.0 0.00 0.00 0.00 84 1015.0
20260904025723 25 119 0.0 0.0 0.00 0.00 0.00 83 1014.9
20260904025223 25 119 0.0 0.0 0.00 0.00 0.00 83 1014.9
20260904025156 25 119 0.0 1.6 0.00 0.00 0.00 83 1014.9
20260904024722 26 119 1.6 3.2 0.00 0.00 0.00 82 1014.9
20260904024227 26 119 1.6 1.6 0.00 0.00 0.00 82 1014.8
20260904024223 26 119 0.0 1.6 0.00 0.00 0.00 82 1014.8
20260904024156 26 119 1.6 1.6 0.00 0.00 0.00 82 1014.8
20260904023723 26 119 0.0 0.0 0.00 0.00 0.00 82 1014.8
20260904023222 26 116 3.2 3.2 0.00 0.00 0.00 83 1014.8
20260904023157 26 119 1.6 3.2 0.00 0.00 0.00 83 1014.8
20260904022723 26 152 0.0 0.0 0.00 0.00 0.00 83 1014.6
20260904022223 26 152 0.0 3.2 0.00 0.00 0.00 82 1014.6
20260904022156 26 152 0.0 0.0 0.00 0.00 0.00 82 1014.6
20260904021722 26 212 0.0 0.0 0.00 0.00 0.00 81 1014.6
20260904021223 26 62 0.0 0.0 0.00 0.00 0.00 80 1014.6
20260904021156 26 62 0.0 0.0 0.00 0.00 0.00 80 1014.6
20260904020723 27 62 0.0 0.0 0.00 0.00 0.00 78 1014.6
20260904020222 27 62 0.0 0.0 0.00 0.00 0.00 77 1014.6
20260904020157 27 62 0.0 0.0 0.00 0.00 0.00 76 1014.6
20260904015723 27 62 0.0 0.0 0.00 0.00 0.00 73 1014.4
20260904015223 27 62 0.0 0.0 0.00 0.00 0.00 73 1014.4
20260904015156 27 62 0.0 0.0 0.00 0.00 0.00 73 1014.4
20260904014722 27 62 0.0 0.0 0.00 0.00 0.00 72 1014.4
20260904014223 27 90 4.8 4.8 0.00 0.00 0.00 71 1014.2
20260904014156 27 90 4.8 4.8 0.00 0.00 0.00 71 1014.2
20260904013723 27 92 4.8 4.8 0.00 0.00 0.00 72 1014.2
20260904013224 27 62 1.6 4.8 0.00 0.00 0.00 71 1014.2
20260904013156 27 88 3.2 3.2 0.00 0.00 0.00 71 1014.2
20260904012722 27 78 1.6 4.8 0.00 0.00 0.00 70 1014.0
20260904012223 28 110 3.2 3.2 0.00 0.00 0.00 70 1014.0
20260904012156 28 96 3.2 4.8 0.00 0.00 0.00 70 1014.0
20260904011724 28 76 3.2 4.8 0.00 0.00 0.00 69 1014.0
20260904011222 28 106 4.8 4.8 0.00 0.00 0.00 71 1014.0
20260904011156 28 80 3.2 4.8 0.00 0.00 0.00 71 1014.0
20260904010723 28 89 3.2 4.8 0.00 0.00 0.00 71 1014.0
20260904010223 28 78 3.2 3.2 0.00 0.00 0.00 70 1014.0
20260904010156 28 92 0.0 3.2 0.00 0.00 0.00 70 1014.0
20260904005722 28 79 1.6 4.8 0.00 0.00 0.00 69 1014.0
20260904005223 28 86 3.2 4.8 0.00 0.00 0.00 69 1014.0
20260904005155 28 80 4.8 6.4 0.00 0.00 0.00 69 1014.0
20260904004723 28 73 3.2 3.2 0.00 0.00 0.00 69 1014.0
20260904004222 28 72 1.6 3.2 0.00 0.00 0.00 70 1013.8
20260904004157 28 66 1.6 3.2 0.00 0.00 0.00 70 1013.8
20260904003723 28 72 3.2 3.2 0.00 0.00 0.00 70 1013.8
20260904003222 28 64 3.2 4.8 0.00 0.00 0.00 71 1013.8
20260904003157 28 76 1.6 3.2 0.00 0.00 0.00 71 1013.8
20260904002723 28 82 1.6 4.8 0.00 0.00 0.00 70 1013.8
20260904002223 28 106 3.2 6.4 0.00 0.00 0.00 72 1013.8
20260904002156 28 99 4.8 6.4 0.00 0.00 0.00 72 1013.8
20260904001722 28 78 3.2 3.2 0.00 0.00 0.00 73 1013.8
20260904001224 28 73 1.6 3.2 0.00 0.00 0.00 71 1013.8
20260904001156 28 65 1.6 3.2 0.00 0.00 0.00 71 1013.8
20260904000722 28 93 1.6 3.2 0.00 0.00 0.00 71 1013.8
20260904000223 28 121 3.2 4.8 0.00 0.00 0.00 71 1013.8
20260904000156 28 80 4.8 4.8 0.00 0.00 0.00 71 1013.8
20260903235724 28 66 3.2 4.8 0.00 0.00 0.00 72 1013.7
20260903235224 28 68 0.0 1.6 0.00 0.00 0.00 72 1013.7
20260903235157 28 51 0.0 1.6 0.00 0.00 0.00 72 1013.7
20260903234723 28 72 1.6 4.8 0.00 0.00 0.00 73 1013.7
20260903234223 28 82 3.2 4.8 0.00 0.00 0.00 72 1013.7
20260903234156 28 64 1.6 4.8 0.00 0.00 0.00 72 1013.7
20260903233724 29 99 1.6 4.8 0.00 0.00 0.00 71 1013.7
20260903233223 29 64 4.8 8.0 0.00 0.00 0.00 71 1013.7
20260903233157 29 41 3.2 4.8 0.00 0.00 0.00 71 1013.7
20260903232723 29 23 3.2 4.8 0.00 0.00 0.00 71 1013.6
20260903232224 30 88 3.2 6.4 0.00 0.00 0.00 70 1013.6
20260903232157 30 83 4.8 8.0 0.00 0.00 0.00 70 1013.6
20260903231722 30 65 1.6 6.4 0.00 0.00 0.00 70 1013.6
20260903231223 30 66 4.8 4.8 0.00 0.00 0.00 69 1013.6
20260903231156 30 66 4.8 6.4 0.00 0.00 0.00 69 1013.6
20260903230723 30 112 0.0 3.2 0.00 0.00 0.00 69 1013.6
20260903230222 30 32 4.8 9.7 0.00 0.00 0.00 69 1013.6
20260903230155 30 58 3.2 9.7 0.00 0.00 0.00 69 1013.6
20260903225722 31 89 12.9 16.1 0.00 0.00 0.00 67 1013.4
20260903225222 31 7 1.6 9.7 0.00 0.00 0.00 66 1013.4
20260903225155 31 66 6.4 6.4 0.00 0.00 0.00 66 1013.4
20260903224723 31 72 4.8 11.3 0.00 0.00 0.00 65 1013.4
20260903224222 32 44 3.2 4.8 0.00 0.00 0.00 67 1013.3
20260903224157 32 52 3.2 9.7 0.00 0.00 0.00 66 1013.3
20260903223722 32 112 6.4 17.7 0.00 0.00 0.00 68 1013.3
20260903223222 32 93 6.4 6.4 0.00 0.00 0.00 69 1013.3
20260903223157 32 71 1.6 3.2 0.00 0.00 0.00 69 1013.3
20260903222723 32 69 1.6 1.6 0.00 0.00 0.00 65 1013.2
20260903222223 33 27 3.2 4.8 0.00 0.00 0.00 65 1013.2
20260903222156 33 75 1.6 8.0 0.00 0.00 0.00 65 1013.2
20260903221722 33 107 3.2 6.4 0.00 0.00 0.00 66 1013.2
20260903221223 33 58 4.8 4.8 0.00 0.00 0.00 66 1013.0
20260903221156 33 88 4.8 6.4 0.00 0.00 0.00 65 1013.0
20260903220722 33 85 1.6 4.8 0.00 0.00 0.00 62 1013.0
20260903220223 33 124 1.6 3.2 0.00 0.00 0.00 59 1013.0
20260903220156 33 126 3.2 6.4 0.00 0.00 0.00 59 1013.0
20260903215724 33 93 4.8 4.8 0.00 0.00 0.00 60 1013.0
20260903215222 33 126 6.4 6.4 0.00 0.00 0.00 61 1013.0
20260903215157 33 86 6.4 8.0 0.00 0.00 0.00 61 1013.0
20260903214723 33 104 3.2 6.4 0.00 0.00 0.00 60 1013.0
20260903214223 33 59 1.6 4.8 0.00 0.00 0.00 60 1012.9
20260903214155 33 56 6.4 6.4 0.00 0.00 0.00 60 1012.9
20260903213723 33 54 4.8 6.4 0.00 0.00 0.00 60 1012.9
20260903213224 33 119 0.0 6.4 0.00 0.00 0.00 60 1012.9
20260903213156 33 112 6.4 6.4 0.00 0.00 0.00 58 1012.9
20260903212722 33 124 3.2 4.8 0.00 0.00 0.00 60 1012.9
20260903212223 34 82 1.6 3.2 0.00 0.00 0.00 60 1012.9
20260903212157 34 112 3.2 4.8 0.00 0.00 0.00 60 1012.9
20260903211724 34 109 1.6 6.4 0.00 0.00 0.00 58 1012.9
20260903211222 34 102 0.0 1.6 0.00 0.00 0.00 58 1013.0
20260903211155 34 100 1.6 1.6 0.00 0.00 0.00 58 1013.0
20260903210723 34 75 6.4 6.4 0.00 0.00 0.00 57 1013.0
20260903210224 34 104 4.8 6.4 0.00 0.00 0.00 57 1013.0
20260903210157 34 117 4.8 6.4 0.00 0.00 0.00 57 1013.0
20260903205722 35 140 4.8 8.0 0.00 0.00 0.00 57 1013.2
20260903205236 35 144 0.0 3.2 0.00 0.00 0.00 54 1013.2
20260903205223 35 148 3.2 4.8 0.00 0.00 0.00 54 1013.2
20260903205155 35 144 0.0 3.2 0.00 0.00 0.00 54 1013.2
20260903204723 35 100 3.2 6.4 0.00 0.00 0.00 54 1013.2
20260903204222 35 34 1.6 3.2 0.00 0.00 0.00 56 1013.3
20260903204157 35 34 3.2 3.2 0.00 0.00 0.00 56 1013.3
20260903203723 35 93 4.8 6.4 0.00 0.00 0.00 56 1013.3
20260903203223 35 131 3.2 3.2 0.00 0.00 0.00 57 1013.3
20260903203156 35 18 0.0 0.0 0.00 0.00 0.00 57 1013.3
20260903202722 34 18 0.0 1.6 0.00 0.00 0.00 54 1013.6
20260903202223 34 80 4.8 4.8 0.00 0.00 0.00 58 1013.6
20260903202155 34 41 4.8 4.8 0.00 0.00 0.00 58 1013.6
20260903201723 34 93 3.2 6.4 0.00 0.00 0.00 58 1013.6
20260903201222 34 169 3.2 4.8 0.00 0.00 0.00 58 1013.9
20260903201157 34 152 3.2 8.0 0.00 0.00 0.00 58 1013.9
20260903200723 34 186 1.6 4.8 0.00 0.00 0.00 58 1013.9
20260903200222 34 66 0.0 3.2 0.00 0.00 0.00 58 1013.9
20260903200156 34 37 0.0 4.8 0.00 0.00 0.00 58 1013.9
20260903195723 34 13 3.2 3.2 0.00 0.00 0.00 58 1014.2
20260903195223 34 48 1.6 3.2 0.00 0.00 0.00 58 1014.2
20260903195155 34 27 1.6 6.4 0.00 0.00 0.00 58 1014.2
20260903194722 34 48 3.2 8.0 0.00 0.00 0.00 59 1014.2
20260903194223 34 85 3.2 3.2 0.00 0.00 0.00 59 1014.4
20260903194157 34 89 1.6 3.2 0.00 0.00 0.00 58 1014.4
20260903193723 34 64 3.2 3.2 0.00 0.00 0.00 59 1014.4
20260903193222 34 71 0.0 3.2 0.00 0.00 0.00 58 1014.4
20260903193156 34 65 3.2 3.2 0.00 0.00 0.00 58 1014.4
20260903192723 34 17 3.2 3.2 0.00 0.00 0.00 60 1014.5
20260903192223 34 229 0.0 1.6 0.00 0.00 0.00 61 1014.5
20260903192157 34 120 1.6 1.6 0.00 0.00 0.00 61 1014.5
20260903191724 34 114 1.6 1.6 0.00 0.00 0.00 63 1014.5
20260903191223 33 48 0.0 1.6 0.00 0.00 0.00 61 1014.6
20260903191156 33 48 0.0 1.6 0.00 0.00 0.00 61 1014.6
20260903190722 33 127 1.6 6.4 0.00 0.00 0.00 60 1014.6
20260903190223 33 97 3.2 4.8 0.00 0.00 0.00 63 1014.6
20260903190156 33 10 1.6 3.2 0.00 0.00 0.00 63 1014.6
20260903185723 33 172 1.6 1.6 0.00 0.00 0.00 61 1014.9
20260903185222 33 102 0.0 0.0 0.00 0.00 0.00 59 1014.9
20260903185157 33 86 0.0 0.0 0.00 0.00 0.00 59 1014.9
20260903184723 33 157 1.6 4.8 0.00 0.00 0.00 60 1014.9
20260903184223 33 137 9.7 9.7 0.00 0.00 0.00 63 1014.9
20260903184156 33 138 1.6 3.2 0.00 0.00 0.00 63 1014.9
20260903183724 33 96 0.0 0.0 0.00 0.00 0.00 61 1014.9
20260903183223 33 127 0.0 1.6 0.00 0.00 0.00 59 1014.9
20260903183155 33 82 1.6 3.2 0.00 0.00 0.00 59 1014.9
20260903182722 33 182 1.6 1.6 0.00 0.00 0.00 62 1015.0
20260903182233 33 124 1.6 3.2 0.00 0.00 0.00 58 1015.0
20260903182223 33 124 1.6 1.6 0.00 0.00 0.00 58 1015.0
20260903182156 33 124 1.6 3.2 0.00 0.00 0.00 58 1015.0
20260903181723 33 78 4.8 8.0 0.00 0.00 0.00 58 1015.0
20260903181222 33 93 1.6 3.2 0.00 0.00 0.00 58 1015.3
20260903181201 33 69 3.2 8.0 0.00 0.00 0.00 58 1015.3
20260903180723 33 107 0.0 6.4 0.00 0.00 0.00 56 1015.3
20260903180223 33 78 3.2 9.7 0.00 0.00 0.00 58 1015.3
20260903180156 33 90 9.7 9.7 0.00 0.00 0.00 57 1015.3
20260903175723 33 102 9.7 9.7 0.00 0.00 0.00 59 1015.4
20260903175222 33 215 0.0 1.6 0.00 0.00 0.00 64 1015.4
20260903175155 33 157 1.6 4.8 0.00 0.00 0.00 64 1015.4
20260903174723 33 134 3.2 4.8 0.00 0.00 0.00 63 1015.4
20260903174222 33 27 3.2 8.0 0.00 0.00 0.00 62 1015.5
20260903174157 33 88 6.4 8.0 0.00 0.00 0.00 63 1015.5
20260903173722 33 69 4.8 8.0 0.00 0.00 0.00 62 1015.5
20260903173223 33 155 3.2 4.8 0.00 0.00 0.00 61 1015.5
20260903173200 33 133 3.2 4.8 0.00 0.00 0.00 61 1015.5
20260903172722 33 38 3.2 4.8 0.00 0.00 0.00 61 1015.6
20260903172222 33 47 4.8 8.0 0.00 0.00 0.00 62 1015.6
20260903172155 33 354 8.0 9.7 0.00 0.00 0.00 62 1015.6
20260903171723 33 31 1.6 6.4 0.00 0.00 0.00 60 1015.6